Regional Weather Roundup
Issued by NWS Northern Indiana

Home | Current Version | Previous Version | Text Only | Print | Product List | Glossary Off
Versions: 1 2 3 4 5 6 7 8 9 10 11 12 13 14 15 16 17 18 19 20 21 22 23 24 25 26 27 28 29 30 31 32 33 34 35 36 37 38 39 40 41 42 43 44 45 46 47 48 49 50

000
ASUS43 KIWX 190600
RWRIWX

KIWX WEATHER ROUNDUP
NATIONAL WEATHER SERVICE NORTHERN INDIANA
200 AM EDT THU OCT 19 2017

NOTE: "FAIR" INDICATES FEW OR NO CLOUDS BELOW 12,000 FEET WITH NO
SIGNIFICANT WEATHER AND/OR OBSTRUCTIONS TO VISIBILITY.

* THESE STATIONS ARE NOT UNDER NWS QUALITY CONTROL. THEY ALSO MAY NOT
  REPORT WEATHER SUCH AS PRECIPITATION OR FOG.

INZ001>027-190700-
NORTHERN INDIANA

CITY           SKY/WX    TMP DP  RH WIND       PRES   REMARKS
SOUTH BEND     CLEAR     55  45  68 SW10      30.09F
6HR MIN TEMP:  55; 6HR MAX TEMP:  59;

GOSHEN         CLEAR     54  43  66 SW9       30.10S
6HR MIN TEMP:  54; 6HR MAX TEMP:  60;

MONTICELLO*    CLEAR     52  44  74 S6        30.12S
6HR MIN TEMP:  51; 6HR MAX TEMP:  61;

FORT WAYNE     PTCLDY    48  42  80 SW5       30.13F
6HR MIN TEMP:  47; 6HR MAX TEMP:  57;

PERU/GRISSOM   CLEAR     54  46  74 SW10      30.13R
6HR MIN TEMP:  52; 6HR MAX TEMP:  55;


$$
INZ028>050-190700-
CENTRAL INDIANA

CITY           SKY/WX    TMP DP  RH WIND       PRES   REMARKS
LAFAYETTE      CLEAR     51  45  79 S3        30.13S
6HR MIN TEMP:  47; 6HR MAX TEMP:  60;

KOKOMO*        CLEAR     51  45  79 S9        30.15S
6HR MIN TEMP:  49; 6HR MAX TEMP:  57;

MUNCIE*        CLEAR     55  44  66 S6        30.17R
6HR MIN TEMP:  54; 6HR MAX TEMP:  61;

INDIANAPOLIS   CLEAR     52  45  77 S7        30.17R
6HR MIN TEMP:  52; 6HR MAX TEMP:  61;


$$
MIZ043>046-050>051-056>058-064>065-071>073-077>080-190700-
SOUTHWEST LOWER MICHIGAN

CITY           SKY/WX    TMP DP  RH WIND       PRES   REMARKS
BATTLE CREEK   CLEAR     55  44  66 SW15      30.06F
6HR MIN TEMP:  54; 6HR MAX TEMP:  61;

BENTON HARBOR  CLEAR     58  44  60 S8        30.05F
6HR MIN TEMP:  57; 6HR MAX TEMP:  62;

COLDWATER*     CLEAR     54  42  64 SW7       30.09S
6HR MIN TEMP:  54; 6HR MAX TEMP:  60;

HILLSDALE*     CLEAR     54  41  62 SW9       30.10S
HOLLAND        CLEAR     60  48  64 SW17      30.02F
6HR MIN TEMP:  58; 6HR MAX TEMP:  63;

GRAND RAPIDS   CLEAR     57  45  64 S14       30.02F
6HR MIN TEMP:  57; 6HR MAX TEMP:  60;

KALAMAZOO      CLEAR     51  43  74 S9        30.07F
6HR MIN TEMP:  51; 6HR MAX TEMP:  60;

STURGIS*       CLEAR     52  44  75 SW6       30.09S
6HR MIN TEMP:  50; 6HR MAX TEMP:  58;

THREE RIVERS*  FAIR      54  45  71 SW8       30.09S
6HR MIN TEMP:  53; 6HR MAX TEMP:  59;


$$
OHZ001>008-015>018-024>025-190700-
NORTHWEST OHIO

CITY           SKY/WX    TMP DP  RH WIND       PRES   REMARKS
DEFIANCE       CLEAR     50  41  71 S8        30.13F
6HR MIN TEMP:  49; 6HR MAX TEMP:  59;

FINDLAY        CLEAR     48  41  76 S9        30.14F
6HR MIN TEMP:  47; 6HR MAX TEMP:  55;

TOLEDO EXPRESS CLEAR     55  44  66 SW8       30.12S
6HR MIN TEMP:  55; 6HR MAX TEMP:  59;

TOLEDO METCALF CLEAR     53  42  66 SW7       30.13F
6HR MIN TEMP:  53; 6HR MAX TEMP:  60;

LIMA           CLEAR     52  43  71 S9        30.16S
6HR MIN TEMP:  52; 6HR MAX TEMP:  59;


$$
AND FOR LAKE MICHIGAN COASTAL AND OPEN LAKE BUOY OBSERVATIONS

STATION/POSITION TEMP    WIND        PRES    VSBY  WAVE
                 AIR SEA DIR/SP/G                  HT/PER
                 (F)     (DEG/KT/KT) (MB)    (MI)  (FT/S)
CALUMET HARBOR    59     210/ 10/ 12 1016.7F
MICHIGAN CITY     58     180/ 12/ 14   N/A
BURNS HARBOR      58     190/ 12/ 16 1018.3F
SAINT JOSEPH      61     200/ 13/ 20 1018.6
SOUTH LAKE BUOY   63 61  230/ 17/ 21 1015.9          4/ 5
4 MI NW BRIDGMAN  60 58  210/ 14/ 19 1018.0F         3/ 4
MICHIGAN CITY     60 58  220/ 16/ 19   N/A           3/ 3

$$
&&



USA.gov is the U.S. government's official web portal to all federal, state and local government web resources and services.